Location: Bishopstone
(51.0167°N, 1.9000°W)
Time: 11:19:52
(UTC+00:00)

Cosmos 389 Rocket - Pass Details

Date: 16 September 2019
Orbit: 444 x 479 km, 81.1° (Epoch: 14 October)

Event Time Altitude Azimuth Distance (km) Brightness Sun altitude
Rises 18:57:09 0° 360° (N) 2,463 6.3 -6.6°
Reaches altitude 10° 18:59:45 10° 20° (NNE) 1,582 5.1 -7.0°
Maximum altitude 19:02:09 18° 65° (ENE) 1,185 4.1 -7.3°
Enters shadow 19:04:31 10° 109° (ESE) 1,561 4.5 -7.7°
